Torna al catalogo

COSMOS 1275 DEB

AttivoPO
NORAD 39960·DEBRIS·🇷🇺 Russia

Lanciato Jun 4, 1981 da Plesetsk Cosmodrome

Loading…

Prossimi Passaggi (prossime 24 ore)

TLE

AggiornatoSource: Space-Track

Epoca: Sep 12, 2026, 08:01 UTC

1 39960U 81053NW  26255.33459165  .00000424  00000-0  56765-3 0  9992
2 39960  83.1420 116.7759 0237530 156.2920 204.9386 13.46899979583900

Traccia COSMOS 1275 DEB in tempo reale con AllMySat

Download on the App Store